Eastern Sierra Regional Airport Bishop US
ICAO: KBIH
IATA: BIH
Category: Medium
Scheduled Services: No

Elevation: 4124 ft
TransAlt. 18000 ft.

Airport Communications:
OAKLAND CNTR:125.75
ASOS:119.025
RIVERSIDE RDO:122.6
CTAF/UNICOM:123

KBIH Zoom In..

Runways:

(A) RW 07 length 5567 ft width 100 ft
---- / hdg 75

(B) RW 12 length 7498 ft width 100 ft
---- / hdg 120

(C) RW 16 length 5600 ft width 100 ft
---- / hdg 165

(D) RW 25 length 5567 ft width 100 ft
---- / hdg 255

(E) RW 30 length 7498 ft width 100 ft
---- / hdg 300

(F) RW 34 length 5600 ft width 100 ft
---- / hdg 345

Location; KBIH
Day. 14 / Time. 13.56 Zulu
* Altimeter: 30.03
* Temperature: 17° c. 62.6°f.
* Wind from: 320° Speed 04 kn.
Dewpoint: 08° c.
Visibility: 10 Statute Miles.
Clouds: Clear (automated report).

KBIH 141356Z AUTO 32004KT 10SM CLR 17/08 A3003 RMK AO2 SLP122 T01670083


Wind From 320°
Speed 04 kn.

 
 
jpsmedia.com for Web Design worldairports.se 2018   terms of use